Regional Weather Roundup
Issued by NWS Cleveland, OH

Home | Current Version | Previous Version | Text Only | Print | Product List | Glossary Off
Versions: 1 2 3 4 5 6 7 8 9 10 11 12 13 14 15 16 17 18 19 20 21 22 23 24 25 26 27 28 29 30 31 32 33 34 35 36 37 38 39 40 41 42 43 44 45 46 47 48 49 50

000
ASUS41 KCLE 210410
RWRCLE
OHIO REGIONAL WEATHER ROUNDUP
NATIONAL WEATHER SERVICE CLEVELAND, OH
1200 AM EDT TUE APR 21 2015

NOTE: "FAIR" INDICATES FEW OR NO CLOUDS BELOW 12,000 FEET WITH NO
SIGNIFICANT WEATHER AND/OR OBSTRUCTIONS TO VISIBILITY.

OHZ001>008-015>018-024>027-034-035-043-044-210500-
   NORTHWEST OHIO

CITY           SKY/WX    TMP DP  RH WIND       PRES   REMARKS
DEFIANCE       PTCLDY    46  30  53 W10G22    29.65R
FINDLAY        MOCLDY    46  36  68 W20       29.65R
TOLEDO EXPRESS CLOUDY    47  31  53 W21G30    29.61R
TOLEDO EXEC    MOCLDY    47  36  65 SW15      29.62S
LIMA           PTCLDY    46  35  65 W18       29.68R
$$

OHZ009>014-019>023-028>033-038-089-210500-
   NORTHEAST OHIO

CITY           SKY/WX    TMP DP  RH WIND       PRES   REMARKS
CLE-HOPKINS    CLEAR     47  35  63 SW14      29.65R
CLE-LAKEFRONT  CLEAR     49  37  63 SW20      29.62R
CUY CO. ARPT   NOT AVBL
LORAIN-ELYRIA  PTCLDY    45  37  73 W14       29.64R
ASHTABULA      PTCLDY    48  38  68 W13       29.62R
AKRON-CANTON   PTCLDY    47  35  63 W12       29.66R
WOOSTER        LGT RAIN  45  36  70 W15       29.67R
MANSFIELD      MOCLDY    46  35  65 W13G24    29.66R
YOUNGSTOWN     MOCLDY    49  36  61 W17G25    29.63R
$$

OHZ042-051>053-060>062-070>072-077>081-210500-
  SOUTHWEST OHIO

CITY           SKY/WX    TMP DP  RH WIND       PRES   REMARKS
CINC-COVINGTON CLOUDY    49  35  58 W7G16     29.79R
CINC-LUNKEN    CLOUDY    49  36  61 SW8       29.79R
HAMILTON       CLOUDY    50  36  58 W8        29.78R
DAYTON         MOCLDY    47  37  68 W13       29.74R
WRIGHT-PAT AFB MOCLDY    47  36  65 W7        29.74R
DAYTON GENERAL CLOUDY    48  35  60 W10G18    29.74S
WILMINGTON     PTCLDY    47  34  60 W13G21    29.75R
$$

OHZ036-037-039>041-045>050-054>059-063>069-073>076-082>088-210500-
  CENTRAL AND SOUTHEAST OHIO

CITY           SKY/WX    TMP DP  RH WIND       PRES   REMARKS
COLUMBUS       MOCLDY    49  36  61 W15       29.72R
OSU AIRPORT    MOCLDY    47  36  65 W12       29.72R
BOLTON FIELD   CLOUDY    48  37  65 W15G24    29.73R
RICKENBACK AFB CLOUDY    48  38  69 W10G16    29.73R
NEWARK         MOCLDY    49  37  63 W10       29.71R
MARION         CLEAR     46  36  68 W12G21    29.68R
LANCASTER      CLOUDY    50  38  63 W6        29.73R
ZANESVILLE     CLOUDY    50  36  58 W12G24    29.71R
NEW PHILLY     CLOUDY    51  38  60 W7        29.69R
$$



USA.gov is the U.S. government's official web portal to all federal, state and local government web resources and services.